Olivia, MN

8:11 PM CDT on July 23, 2017 (GMT -0500)
Olivia Regional

Weather History for KOVL - December, 2012

Change the Weather History Date:

Thursday, December 6, 2012

  Actual Average (KRWF) Record (KRWF)
Temperature  
Mean Temperature 34 °F -  
Max Temperature 46 °F 27 °F 70 °F (1939)
Min Temperature 21 °F 11 °F -20 °F (1972)
Degree Days  
Heating Degree Days 30    
Moisture  
Dew Point 27 °F    
Average Humidity 65    
Maximum Humidity 81    
Minimum Humidity 50    
Precipitation  
Precipitation 0.00 in - - ()
Sea Level Pressure  
Sea Level Pressure 29.87 in    
Wind  
Wind Speed 12 mph (WNW)    
Max Wind Speed 25 mph    
Max Gust Speed 34 mph    
Visibility 10 miles    
Events Rain    
Averages and records for this station are not official NWS values.
T = Trace of Precipitation, MM = Missing Value Source: NWS Daily Summary

Daily Weather History Graph

Daily Weather History Graph

Search for Another Location

Airport or City:

Trip Planner

Search our weather history database for the weather conditions in past years. The results will help you decide how hot, cold, wet, or windy it might be!

Date:

Astronomy

Dec. 06, 2012 Rise Set
Actual Time 7:43 AM CST 4:39 PM CST
Civil Twilight 7:10 AM CST 5:12 PM CST
Nautical Twilight 6:33 AM CST 5:49 PM CST
Astronomical Twilight 5:57 AM CST 6:24 PM CST
Moon No Moon Rise 12:21 PM CST (12/6)
Length of Visible Light 10h 02m
Length of Day
8h 56m
Waning Gibbous, 49% of the Moon is Illuminated
Dec 6
Waning Gibbous
Dec 13
New
Dec 19
First Quarter
Dec 28
Full
Jan 4
Last Quarter

Hourly Weather History & Observations

Time (CST) Temp. Windchill Dew Point Humidity Pressure Visibility Wind Dir Wind Speed Gust Speed Precip Events Conditions
12:11 AM 46.4 °F 39.5 °F 30.2 °F 53% 29.74 in 10.0 mi South 17.3 mph 24.2 mph N/A   Clear
12:30 AM 46.4 °F 39.8 °F 30.2 °F 53% 29.73 in 10.0 mi South 16.1 mph 21.9 mph N/A   Scattered Clouds
12:51 AM 46.4 °F 40.1 °F 30.2 °F 53% 29.73 in 10.0 mi South 15.0 mph 19.6 mph N/A   Scattered Clouds
1:11 AM 46.4 °F 40.7 °F 32.0 °F 57% 29.73 in 10.0 mi South 12.7 mph 18.4 mph N/A   Scattered Clouds
1:31 AM 44.6 °F 38.8 °F 30.2 °F 57% 29.73 in 10.0 mi South 11.5 mph 16.1 mph N/A   Clear
1:51 AM 46.4 °F 40.7 °F 30.2 °F 53% 29.72 in 10.0 mi South 12.7 mph - N/A   Clear
2:11 AM 44.6 °F 39.7 °F 30.2 °F 57% 29.73 in 10.0 mi South 9.2 mph - N/A   Scattered Clouds
2:31 AM 44.6 °F 39.7 °F 30.2 °F 57% 29.73 in 10.0 mi South 9.2 mph - N/A   Mostly Cloudy
2:50 AM 46.4 °F 42.4 °F 30.2 °F 53% 29.73 in 10.0 mi South 8.1 mph - N/A   Scattered Clouds
3:11 AM 46.4 °F 41.9 °F 28.4 °F 50% 29.74 in 10.0 mi South 9.2 mph - N/A   Clear
3:31 AM 46.4 °F 41.5 °F 28.4 °F 50% 29.73 in 10.0 mi SSW 10.4 mph - N/A   Scattered Clouds
3:51 AM 46.4 °F 41.9 °F 28.4 °F 50% 29.73 in 10.0 mi SSW 9.2 mph - N/A   Scattered Clouds
4:11 AM 46.4 °F 42.4 °F 28.4 °F 50% 29.74 in 10.0 mi SSW 8.1 mph - N/A   Clear
4:31 AM 42.8 °F 39.3 °F 28.4 °F 57% 29.74 in 10.0 mi West 5.8 mph - N/A   Light Drizzle
4:51 AM 44.6 °F 39.7 °F 28.4 °F 53% 29.75 in 10.0 mi West 9.2 mph - N/A Rain Light Rain
5:11 AM 44.6 °F 41.4 °F 32.0 °F 61% 29.75 in 10.0 mi West 5.8 mph - N/A   Light Drizzle
5:31 AM 42.8 °F 38.0 °F 32.0 °F 66% 29.77 in 10.0 mi West 8.1 mph - N/A   Scattered Clouds
5:51 AM 42.8 °F 38.6 °F 32.0 °F 66% 29.77 in 10.0 mi WNW 6.9 mph - N/A   Scattered Clouds
6:11 AM 41.0 °F 37.1 °F 32.0 °F 70% 29.77 in 10.0 mi WNW 5.8 mph - N/A   Scattered Clouds
6:31 AM 41.0 °F 35.8 °F 30.2 °F 65% 29.78 in 10.0 mi WNW 8.1 mph - N/A   Clear
6:51 AM 39.2 °F 32.0 °F 30.2 °F 70% 29.80 in 10.0 mi WNW 11.5 mph - N/A   Clear
7:11 AM 39.2 °F 30.8 °F 30.2 °F 70% 29.81 in 10.0 mi NW 15.0 mph 21.9 mph N/A   Clear
7:31 AM 39.2 °F 30.5 °F 32.0 °F 75% 29.82 in 10.0 mi NW 16.1 mph - N/A   Clear
7:51 AM 35.6 °F 27.5 °F 30.2 °F 81% 29.83 in 10.0 mi NW 11.5 mph 16.1 mph N/A   Clear
8:11 AM 35.6 °F 26.6 °F 30.2 °F 81% 29.84 in 10.0 mi NW 13.8 mph 20.7 mph N/A   Clear
8:31 AM 35.6 °F 27.5 °F 30.2 °F 81% 29.84 in 10.0 mi NW 11.5 mph - N/A   Clear
8:51 AM 35.6 °F 27.1 °F 30.2 °F 81% 29.85 in 10.0 mi WNW 12.7 mph 17.3 mph N/A   Clear
9:11 AM 35.6 °F 26.6 °F 30.2 °F 81% 29.86 in 10.0 mi WNW 13.8 mph - N/A   Clear
9:31 AM 39.2 °F 30.2 °F 30.2 °F 70% 29.86 in 10.0 mi NW 17.3 mph 25.3 mph N/A   Clear
9:51 AM 39.2 °F 29.6 °F 30.2 °F 70% 29.86 in 10.0 mi WNW 19.6 mph 27.6 mph N/A   Clear
10:11 AM 41.0 °F 31.1 °F 30.2 °F 65% 29.87 in 10.0 mi NW 23.0 mph 34.5 mph N/A   Clear
10:31 AM 41.0 °F 31.1 °F 30.2 °F 65% 29.88 in 10.0 mi NW 23.0 mph 31.1 mph N/A   Scattered Clouds
10:51 AM 41.0 °F 31.1 °F 30.2 °F 65% 29.88 in 10.0 mi NW 23.0 mph 28.8 mph N/A   Clear
11:11 AM 41.0 °F 30.7 °F 28.4 °F 61% 29.87 in 10.0 mi NW 25.3 mph 31.1 mph N/A   Clear
11:31 AM 41.0 °F 31.4 °F 28.4 °F 61% 29.87 in 10.0 mi NW 21.9 mph 26.5 mph N/A   Clear
11:51 AM 41.0 °F 32.2 °F 28.4 °F 61% 29.88 in 10.0 mi NW 18.4 mph 26.5 mph N/A   Clear
12:11 PM 41.0 °F 33.5 °F 28.4 °F 61% 29.88 in 10.0 mi NW 13.8 mph - N/A   Clear
12:31 PM 41.0 °F 33.5 °F 28.4 °F 61% 29.88 in 10.0 mi WNW 13.8 mph 20.7 mph N/A   Clear
12:51 PM 42.8 °F 35.4 °F 28.4 °F 57% 29.89 in 10.0 mi NW 15.0 mph 19.6 mph N/A   Clear
1:11 PM 42.8 °F 35.1 °F 28.4 °F 57% 29.89 in 10.0 mi NW 16.1 mph 19.6 mph N/A   Clear
1:31 PM 42.8 °F 35.8 °F 28.4 °F 57% 29.89 in 10.0 mi NW 13.8 mph 24.2 mph N/A   Clear
1:51 PM 41.0 °F 32.5 °F 26.6 °F 57% 29.89 in 10.0 mi WNW 17.3 mph 24.2 mph N/A   Clear
2:11 PM 41.0 °F 33.5 °F 26.6 °F 57% 29.89 in 10.0 mi NW 13.8 mph 20.7 mph N/A   Clear
2:31 PM 41.0 °F 32.8 °F 26.6 °F 57% 29.89 in 10.0 mi WNW 16.1 mph 20.7 mph N/A   Clear
2:50 PM 41.0 °F 32.8 °F 28.4 °F 61% 29.90 in 10.0 mi NW 16.1 mph 20.7 mph N/A   Clear
3:11 PM 41.0 °F 33.5 °F 28.4 °F 61% 29.90 in 10.0 mi NW 13.8 mph 19.6 mph N/A   Clear
3:31 PM 41.0 °F 33.1 °F 28.4 °F 61% 29.91 in 10.0 mi NW 15.0 mph 20.7 mph N/A   Clear
3:51 PM 39.2 °F 31.2 °F 26.6 °F 61% 29.92 in 10.0 mi NW 13.8 mph - N/A   Clear
4:11 PM 39.2 °F 32.5 °F 28.4 °F 65% 29.92 in 10.0 mi WNW 10.4 mph - N/A   Clear
4:31 PM 39.2 °F 32.5 °F 28.4 °F 65% 29.93 in 10.0 mi NW 10.4 mph - N/A   Clear
4:51 PM 35.6 °F 28.0 °F 26.6 °F 70% 29.94 in 10.0 mi NW 10.4 mph - N/A   Clear
5:11 PM 35.6 °F 28.0 °F 26.6 °F 70% 29.95 in 10.0 mi NW 10.4 mph - N/A   Clear
5:31 PM 33.8 °F 25.8 °F 26.6 °F 75% 29.95 in 10.0 mi NW 10.4 mph - N/A   Clear
5:50 PM 33.8 °F 27.7 °F 26.6 °F 75% 29.96 in 10.0 mi NW 6.9 mph - N/A   Clear
6:11 PM 32.0 °F 25.6 °F 24.8 °F 75% 29.96 in 10.0 mi NW 6.9 mph - N/A   Clear
6:29 PM 33.8 °F 26.4 °F 26.6 °F 75% 29.96 in 10.0 mi NW 9.2 mph - N/A   Clear
7:11 PM 32.0 °F 23.0 °F 21.2 °F 64% 29.97 in 10.0 mi NNW 11.5 mph - N/A   Clear
7:31 PM 32.0 °F 24.2 °F 23.0 °F 69% 29.98 in 10.0 mi NNW 9.2 mph - N/A   Clear
7:51 PM 32.0 °F 23.0 °F 21.2 °F 64% 29.98 in 10.0 mi NNW 11.5 mph - N/A   Clear
8:31 PM 30.2 °F 21.9 °F 21.2 °F 69% 29.98 in 10.0 mi NNW 9.2 mph - N/A   Clear
8:51 PM 30.2 °F 22.6 °F 21.2 °F 69% 29.99 in 10.0 mi NNW 8.1 mph - N/A   Clear
9:11 PM 28.4 °F 23.3 °F 21.2 °F 74% 29.99 in 10.0 mi NNW 4.6 mph - N/A   Clear
9:31 PM 28.4 °F - 21.2 °F 74% 30.00 in 10.0 mi Calm Calm - N/A   Clear
9:51 PM 26.6 °F 22.6 °F 19.4 °F 74% 30.00 in 10.0 mi NNW 3.5 mph - N/A   Clear
10:11 PM 24.8 °F 19.1 °F 17.6 °F 74% 30.00 in 10.0 mi NW 4.6 mph - N/A   Clear
10:31 PM 26.6 °F - 19.4 °F 74% 29.99 in 10.0 mi Calm Calm - N/A   Clear
10:51 PM 26.6 °F - 19.4 °F 74% 29.99 in 10.0 mi Calm Calm - N/A   Clear
11:11 PM 23.0 °F - 17.6 °F 80% 29.99 in 10.0 mi Calm Calm - N/A   Clear
11:31 PM 23.0 °F - 17.6 °F 80% 29.99 in 10.0 mi Calm Calm - N/A   Clear
11:51 PM 21.2 °F - 15.8 °F 80% 30.00 in 10.0 mi Calm Calm - N/A   Clear